Regional Weather Roundup
Issued by NWS

Home | Current Version | Previous Version | Text Only | Print | Product List | Glossary On
Versions: 1 2 3 4 5 6 7 8 9 10 11 12 13 14 15 16 17 18 19 20 21 22 23 24 25 26 27 28 29 30 31 32 33 34 35 36 37 38 39 40 41 42 43 44 45 46 47 48 49 50
000
ASUS45 KREV 290910
RWRNV
NEVADA REGIONAL WEATHER ROUNDUP
NATIONAL WEATHER SERVICE RENO NV
200 AM PDT SAT APR 29 2017

NOTE: "FAIR" INDICATES FEW OR NO CLOUDS BELOW 12,000 FEET WITH NO
SIGNIFICANT WEATHER AND/OR OBSTRUCTIONS TO VISIBILITY.

NVZ001-003-004-291000-
WESTERN NEVADA

CITY           SKY/WX    TMP DP  RH WIND       PRES   REMARKS
RENO           CLEAR     40  18  41 E3        30.23R
CARSON CITY    FAIR      32  18  55 CALM      30.23F
MINDEN         FAIR      25  16  68 E5        30.23F
FALLON         CLEAR     34  18  52 SW5       30.21F
LOVELOCK       CLEAR     30  17  58 MISG      30.22F
HAWTHORNE      CLEAR     36  18  48 S6        30.22S
$$

NVZ002-CAZ072-073-291000-
NORTHERN AND CENTRAL SIERRA

CITY           SKY/WX    TMP DP  RH WIND       PRES   REMARKS
S. LAKE TAHOE  CLEAR     37  11  34 VRB6      30.16F
TRUCKEE        CLEAR     25  14  63 CALM      30.19S
SQUAW VLY 8000   N/A     27  16  63 NE9         N/A
SUSANVILLE     CLEAR     36  25  64 S3        30.23S
MAMMOTH LAKES  FAIR      27  13  55 W7        30.23F
BRIDGEPORT       N/A     27  12  53 CALM      30.18F
$$

NVZ030-031-036-291000-
NORTHERN NEVADA

CITY           SKY/WX    TMP DP  RH WIND       PRES   REMARKS
ELKO           CLEAR     30  23  75 W3        30.18F
WINNEMUCCA     CLEAR     23  21  92 SE6       30.23R
WENDOVER       PTCLDY    43  24  47 NW20      30.11R
$$

NVZ035-037-291000-
CENTRAL NEVADA

CITY           SKY/WX    TMP DP  RH WIND       PRES   REMARKS
ELY            PTCLDY    29  17  61 N10       30.12S
EUREKA           N/A     24  18  77 CALM      30.17F
$$

NVZ013-014-291000-
SOUTH CENTRAL NEVADA

CITY           SKY/WX    TMP DP  RH WIND       PRES   REMARKS
TONOPAH        CLEAR     32  16  51 NW9       30.18S
$$

NVZ017-020-022-291000-
SOUTHERN NEVADA

CITY           SKY/WX    TMP DP  RH WIND       PRES   REMARKS
LAS VEGAS      CLEAR     58  17  20 N17G23    30.00F
N. LAS VEGAS   CLEAR     57  18  21 N16G26    30.01R
NELLIS AFB     CLEAR     59  20  22 NW12      30.01R
HENDERSON      CLEAR     56  20  24 N17       30.01F
MERCURY        CLEAR     48  19  31 NE9       30.08R
$$



USA.gov is the U.S. government's official web portal to all federal, state and local government web resources and services.